Time,TemperatureF,DewpointF,PressureIn,WindDirection,WindDirectionDegrees,WindSpeedMPH,WindSpeedGustMPH,Humidity,HourlyPrecipIn,Conditions,Clouds,dailyrainin,SoftwareType,DateUTC
2013-02-05 00:00:00,50.5,47.7,29.84,WSW,246,0.0,0.0,90,0.00,,,0.00,WeatherCatV1.13B119,2013-02-05 06:00:00,
2013-02-05 00:05:00,50.2,47.7,29.84,WSW,246,0.0,1.0,91,0.00,,,0.00,WeatherCatV1.13B119,2013-02-05 06:05:00,
2013-02-05 00:10:00,50.0,47.8,29.84,WSW,246,0.0,0.0,92,0.00,,,0.00,WeatherCatV1.13B119,2013-02-05 06:10:00,
2013-02-05 00:15:00,49.9,47.4,29.84,WSW,246,0.0,1.0,91,0.00,,,0.00,WeatherCatV1.13B119,2013-02-05 06:15:00,
2013-02-05 00:20:00,49.7,47.5,29.84,WSW,246,0.0,0.0,92,0.00,,,0.00,WeatherCatV1.13B119,2013-02-05 06:20:00,
2013-02-05 00:25:00,49.5,47.0,29.84,WSW,246,0.0,0.0,91,0.00,,,0.00,WeatherCatV1.13B119,2013-02-05 06:25:00,
2013-02-05 00:30:00,49.4,47.2,29.84,WSW,246,0.0,0.0,92,0.00,,,0.00,WeatherCatV1.13B119,2013-02-05 06:30:00,
2013-02-05 00:35:00,49.6,48.2,29.84,WNW,294,0.0,0.0,95,0.00,,,0.00,WeatherCatV1.13B119,2013-02-05 06:35:00,
2013-02-05 00:40:00,50.3,49.2,29.85,WNW,294,0.0,1.0,96,0.00,,,0.00,WeatherCatV1.13B119,2013-02-05 06:40:00,
2013-02-05 00:45:00,50.9,49.5,29.85,NW,307,0.0,1.0,95,0.00,,,0.00,WeatherCatV1.13B119,2013-02-05 06:45:00,
2013-02-05 00:50:00,51.1,49.4,29.85,NW,312,0.0,0.0,94,0.00,,,0.00,WeatherCatV1.13B119,2013-02-05 06:50:00,
2013-02-05 00:55:00,51.1,49.1,29.85,NW,318,0.0,0.0,93,0.00,,,0.00,WeatherCatV1.13B119,2013-02-05 06:55:00,
2013-02-05 01:00:00,50.9,48.9,29.85,NW,318,0.0,0.0,93,0.00,,,0.00,WeatherCatV1.13B119,2013-02-05 07:00:00,
2013-02-05 01:05:00,50.6,48.7,29.85,NW,318,0.0,0.0,93,0.00,,,0.00,WeatherCatV1.13B119,2013-02-05 07:05:00,
2013-02-05 01:10:00,50.4,48.5,29.85,NNW,330,1.0,1.0,93,0.00,,,0.00,WeatherCatV1.13B119,2013-02-05 07:10:00,
2013-02-05 01:15:00,50.2,48.3,29.85,NNW,330,0.0,1.0,93,0.00,,,0.00,WeatherCatV1.13B119,2013-02-05 07:15:00,
2013-02-05 01:20:00,49.9,48.0,29.85,NNW,330,0.0,0.0,93,0.00,,,0.00,WeatherCatV1.13B119,2013-02-05 07:20:00,
2013-02-05 01:25:00,49.7,47.8,29.85,NNW,330,0.0,0.0,93,0.00,,,0.00,WeatherCatV1.13B119,2013-02-05 07:25:00,
2013-02-05 01:30:00,49.5,47.8,29.85,NNW,330,0.0,0.0,94,0.00,,,0.00,WeatherCatV1.13B119,2013-02-05 07:30:00,
2013-02-05 01:35:00,49.5,47.8,29.85,NNW,330,0.0,0.0,94,0.00,,,0.00,WeatherCatV1.13B119,2013-02-05 07:35:00,
2013-02-05 01:40:00,49.4,47.7,29.85,NNW,330,0.0,0.0,94,0.00,,,0.00,WeatherCatV1.13B119,2013-02-05 07:40:00,
2013-02-05 01:45:00,49.5,48.1,29.86,NNW,330,0.0,0.0,95,0.00,,,0.00,WeatherCatV1.13B119,2013-02-05 07:45:00,
2013-02-05 01:50:00,49.4,47.5,29.86,WNW,290,1.0,1.0,93,0.00,,,0.00,WeatherCatV1.13B119,2013-02-05 07:50:00,
2013-02-05 01:55:00,49.3,47.4,29.86,WNW,290,0.0,0.0,93,0.00,,,0.00,WeatherCatV1.13B119,2013-02-05 07:55:00,
2013-02-05 02:00:00,49.1,47.4,29.86,WNW,290,0.0,0.0,94,0.00,,,0.00,WeatherCatV1.13B119,2013-02-05 08:00:00,
2013-02-05 02:05:00,49.0,47.3,29.86,WNW,290,0.0,0.0,94,0.00,,,0.00,WeatherCatV1.13B119,2013-02-05 08:05:00,
2013-02-05 02:10:00,48.9,47.2,29.86,WNW,290,0.0,0.0,94,0.00,,,0.00,WeatherCatV1.13B119,2013-02-05 08:10:00,
2013-02-05 02:15:00,48.9,47.0,29.85,WNW,290,0.0,0.0,93,0.00,,,0.00,WeatherCatV1.13B119,2013-02-05 08:15:00,
2013-02-05 02:20:00,48.8,47.2,29.86,WNW,290,0.0,0.0,94,0.00,,,0.00,WeatherCatV1.13B119,2013-02-05 08:20:00,
2013-02-05 02:25:00,48.9,47.2,29.85,WNW,290,0.0,1.0,94,0.00,,,0.00,WeatherCatV1.13B119,2013-02-05 08:25:00,
2013-02-05 02:30:00,48.8,47.2,29.86,WNW,290,0.0,1.0,94,0.00,,,0.00,WeatherCatV1.13B119,2013-02-05 08:30:00,
2013-02-05 02:35:00,48.6,47.0,29.86,WNW,290,0.0,0.0,94,0.00,,,0.00,WeatherCatV1.13B119,2013-02-05 08:35:00,
2013-02-05 02:40:00,48.6,47.2,29.85,WNW,298,0.0,1.0,95,0.00,,,0.00,WeatherCatV1.13B119,2013-02-05 08:40:00,
2013-02-05 02:45:00,48.6,47.2,29.85,WNW,298,0.0,0.0,95,0.00,,,0.00,WeatherCatV1.13B119,2013-02-05 08:45:00,
2013-02-05 02:50:00,48.4,46.8,29.85,WNW,298,0.0,0.0,94,0.00,,,0.00,WeatherCatV1.13B119,2013-02-05 08:50:00,
2013-02-05 02:55:00,48.2,46.6,29.85,WNW,298,0.0,0.0,94,0.00,,,0.00,WeatherCatV1.13B119,2013-02-05 08:55:00,
2013-02-05 03:00:00,48.0,46.4,29.85,WNW,298,0.0,0.0,94,0.00,,,0.00,WeatherCatV1.13B119,2013-02-05 09:00:00,
2013-02-05 03:05:00,47.9,46.5,29.85,WNW,298,0.0,0.0,95,0.00,,,0.00,WeatherCatV1.13B119,2013-02-05 09:05:00,
2013-02-05 03:10:00,47.9,46.5,29.85,WNW,298,0.0,0.0,95,0.00,,,0.00,WeatherCatV1.13B119,2013-02-05 09:10:00,
2013-02-05 03:15:00,47.7,46.1,29.85,WNW,298,0.0,0.0,94,0.00,,,0.00,WeatherCatV1.13B119,2013-02-05 09:15:00,
2013-02-05 03:20:00,47.4,45.8,29.85,WNW,298,0.0,0.0,94,0.00,,,0.00,WeatherCatV1.13B119,2013-02-05 09:20:00,
2013-02-05 03:25:00,47.2,45.6,29.85,WNW,298,0.0,1.0,94,0.00,,,0.00,WeatherCatV1.13B119,2013-02-05 09:25:00,
2013-02-05 03:30:00,47.1,45.7,29.85,WNW,298,0.0,0.0,95,0.00,,,0.00,WeatherCatV1.13B119,2013-02-05 09:30:00,
2013-02-05 03:35:00,47.1,45.7,29.85,WNW,298,0.0,0.0,95,0.00,,,0.00,WeatherCatV1.13B119,2013-02-05 09:35:00,
2013-02-05 03:40:00,47.2,45.8,29.85,WNW,298,0.0,0.0,95,0.00,,,0.00,WeatherCatV1.13B119,2013-02-05 09:40:00,
2013-02-05 03:42:00,47.1,45.5,29.86,WNW,298,0.0,0.0,94,0.00,,,0.00,WeatherCatV1.13B119,2013-02-05 09:42:00,
2013-02-05 03:47:00,46.9,45.5,29.86,WNW,298,0.0,0.0,95,0.00,,,0.00,WeatherCatV1.13B119,2013-02-05 09:47:00,
2013-02-05 03:52:00,46.7,45.3,29.86,WNW,298,0.0,0.0,95,0.00,,,0.00,WeatherCatV1.13B119,2013-02-05 09:52:00,
2013-02-05 03:57:00,46.5,45.1,29.86,WNW,298,0.0,0.0,95,0.00,,,0.00,WeatherCatV1.13B119,2013-02-05 09:57:00,
2013-02-05 04:02:00,46.5,45.4,29.86,WNW,298,0.0,0.0,96,0.00,,,0.00,WeatherCatV1.13B119,2013-02-05 10:02:00,
2013-02-05 04:07:00,46.5,45.1,29.86,WNW,298,0.0,0.0,95,0.00,,,0.00,WeatherCatV1.13B119,2013-02-05 10:07:00,
2013-02-05 04:12:00,46.6,45.5,29.86,WNW,298,0.0,0.0,96,0.00,,,0.00,WeatherCatV1.13B119,2013-02-05 10:12:00,
2013-02-05 04:17:00,46.7,45.3,29.86,WNW,298,0.0,0.0,95,0.00,,,0.00,WeatherCatV1.13B119,2013-02-05 10:17:00,
2013-02-05 04:22:00,46.8,45.7,29.86,WNW,298,0.0,0.0,96,0.00,,,0.00,WeatherCatV1.13B119,2013-02-05 10:22:00,
2013-02-05 04:27:00,46.8,46.0,29.86,WNW,298,0.0,0.0,97,0.00,,,0.00,WeatherCatV1.13B119,2013-02-05 10:27:00,
2013-02-05 04:32:00,46.9,46.1,29.86,WNW,298,0.0,0.0,97,0.00,,,0.00,WeatherCatV1.13B119,2013-02-05 10:32:00,
2013-02-05 04:37:00,46.9,46.1,29.86,WNW,298,0.0,0.0,97,0.00,,,0.00,WeatherCatV1.13B119,2013-02-05 10:37:00,
2013-02-05 04:42:00,46.9,46.1,29.86,WNW,298,0.0,0.0,97,0.00,,,0.00,WeatherCatV1.13B119,2013-02-05 10:42:00,
2013-02-05 04:47:00,46.8,45.7,29.86,WNW,298,0.0,0.0,96,0.00,,,0.00,WeatherCatV1.13B119,2013-02-05 10:47:00,
2013-02-05 04:52:00,46.7,45.6,29.87,WNW,298,0.0,0.0,96,0.00,,,0.00,WeatherCatV1.13B119,2013-02-05 10:52:00,
2013-02-05 04:57:00,46.6,45.5,29.87,WNW,298,0.0,0.0,96,0.00,,,0.00,WeatherCatV1.13B119,2013-02-05 10:57:00,
2013-02-05 05:02:00,46.5,45.1,29.87,WNW,298,0.0,0.0,95,0.00,,,0.00,WeatherCatV1.13B119,2013-02-05 11:02:00,
2013-02-05 05:07:00,46.9,46.1,29.87,WNW,298,0.0,0.0,97,0.00,,,0.00,WeatherCatV1.13B119,2013-02-05 11:07:00,
2013-02-05 05:12:00,47.1,46.3,29.87,WNW,298,0.0,0.0,97,0.00,,,0.00,WeatherCatV1.13B119,2013-02-05 11:12:00,
2013-02-05 05:17:00,47.1,46.3,29.87,WNW,298,0.0,0.0,97,0.00,,,0.00,WeatherCatV1.13B119,2013-02-05 11:17:00,
2013-02-05 05:22:00,47.3,46.5,29.87,WNW,298,0.0,0.0,97,0.00,,,0.00,WeatherCatV1.13B119,2013-02-05 11:22:00,
2013-02-05 05:27:00,47.3,46.5,29.87,WNW,298,0.0,0.0,97,0.00,,,0.00,WeatherCatV1.13B119,2013-02-05 11:27:00,
2013-02-05 05:32:00,47.3,46.5,29.87,WNW,298,0.0,0.0,97,0.00,,,0.00,WeatherCatV1.13B119,2013-02-05 11:32:00,
2013-02-05 05:37:00,47.1,46.3,29.88,WNW,298,0.0,0.0,97,0.00,,,0.00,WeatherCatV1.13B119,2013-02-05 11:37:00,
2013-02-05 05:42:00,47.1,46.3,29.88,WNW,298,0.0,0.0,97,0.00,,,0.00,WeatherCatV1.13B119,2013-02-05 11:42:00,
2013-02-05 05:47:00,47.0,46.2,29.88,WNW,298,0.0,0.0,97,0.00,,,0.00,WeatherCatV1.13B119,2013-02-05 11:47:00,
2013-02-05 05:52:00,47.6,47.1,29.88,WNW,298,0.0,0.0,98,0.00,,,0.00,WeatherCatV1.13B119,2013-02-05 11:52:00,
2013-02-05 05:57:00,47.7,47.2,29.88,WNW,298,0.0,0.0,98,0.00,,,0.00,WeatherCatV1.13B119,2013-02-05 11:57:00,
2013-02-05 06:02:00,47.6,47.1,29.88,WNW,298,0.0,0.0,98,0.00,,,0.00,WeatherCatV1.13B119,2013-02-05 12:02:00,
2013-02-05 06:07:00,47.4,46.9,29.89,WNW,298,0.0,0.0,98,0.00,,,0.00,WeatherCatV1.13B119,2013-02-05 12:07:00,
2013-02-05 06:12:00,47.1,46.3,29.89,WNW,298,0.0,0.0,97,0.00,,,0.00,WeatherCatV1.13B119,2013-02-05 12:12:00,
2013-02-05 06:17:00,46.7,45.9,29.89,WNW,298,0.0,0.0,97,0.00,,,0.00,WeatherCatV1.13B119,2013-02-05 12:17:00,
2013-02-05 06:23:00,46.5,45.7,29.89,WNW,298,0.0,0.0,97,0.00,,,0.00,WeatherCatV1.13B119,2013-02-05 12:23:00,
2013-02-05 06:28:00,46.1,45.0,29.90,WNW,298,0.0,0.0,96,0.00,,,0.00,WeatherCatV1.13B119,2013-02-05 12:28:00,
2013-02-05 06:33:00,45.8,44.7,29.90,WNW,298,0.0,0.0,96,0.00,,,0.00,WeatherCatV1.13B119,2013-02-05 12:33:00,
2013-02-05 06:38:00,45.6,44.5,29.90,WNW,298,0.0,0.0,96,0.00,,,0.00,WeatherCatV1.13B119,2013-02-05 12:38:00,
2013-02-05 06:43:00,45.5,44.7,29.90,WNW,298,0.0,0.0,97,0.00,,,0.00,WeatherCatV1.13B119,2013-02-05 12:43:00,
2013-02-05 06:48:00,45.8,45.0,29.91,WNW,298,0.0,0.0,97,0.00,,,0.00,WeatherCatV1.13B119,2013-02-05 12:48:00,
2013-02-05 06:53:00,46.2,45.7,29.91,WNW,298,0.0,0.0,98,0.00,,,0.00,WeatherCatV1.13B119,2013-02-05 12:53:00,
2013-02-05 06:58:00,46.0,45.5,29.91,WNW,298,0.0,0.0,98,0.00,,,0.00,WeatherCatV1.13B119,2013-02-05 12:58:00,
2013-02-05 07:03:00,45.7,44.9,29.91,WNW,298,0.0,0.0,97,0.00,,,0.00,WeatherCatV1.13B119,2013-02-05 13:03:00,
2013-02-05 07:08:00,45.5,44.7,29.92,WNW,298,0.0,0.0,97,0.00,,,0.00,WeatherCatV1.13B119,2013-02-05 13:08:00,
2013-02-05 07:13:00,45.4,44.6,29.92,WNW,298,0.0,0.0,97,0.00,,,0.00,WeatherCatV1.13B119,2013-02-05 13:13:00,
2013-02-05 07:18:00,45.3,44.5,29.92,WNW,298,0.0,0.0,97,0.00,,,0.00,WeatherCatV1.13B119,2013-02-05 13:18:00,
2013-02-05 07:23:00,45.2,44.4,29.92,WNW,298,0.0,0.0,97,0.00,,,0.00,WeatherCatV1.13B119,2013-02-05 13:23:00,
2013-02-05 07:28:00,44.9,44.1,29.92,WNW,298,0.0,0.0,97,0.00,,,0.00,WeatherCatV1.13B119,2013-02-05 13:28:00,
2013-02-05 07:33:00,44.8,44.0,29.93,WNW,298,0.0,0.0,97,0.00,,,0.00,WeatherCatV1.13B119,2013-02-05 13:33:00,
2013-02-05 07:38:00,44.8,44.0,29.93,WNW,298,0.0,0.0,97,0.00,,,0.00,WeatherCatV1.13B119,2013-02-05 13:38:00,
2013-02-05 07:43:00,45.0,44.5,29.93,WNW,298,0.0,0.0,98,0.00,,,0.00,WeatherCatV1.13B119,2013-02-05 13:43:00,
2013-02-05 07:48:00,45.5,45.0,29.93,WNW,298,0.0,0.0,98,0.00,,,0.00,WeatherCatV1.13B119,2013-02-05 13:48:00,
2013-02-05 07:53:00,45.5,45.0,29.93,WNW,298,0.0,0.0,98,0.00,,,0.00,WeatherCatV1.13B119,2013-02-05 13:53:00,
2013-02-05 07:58:00,45.7,45.2,29.93,WNW,298,0.0,0.0,98,0.00,,,0.00,WeatherCatV1.13B119,2013-02-05 13:58:00,
2013-02-05 08:03:00,46.2,45.7,29.94,WNW,298,0.0,0.0,98,0.00,,,0.00,WeatherCatV1.13B119,2013-02-05 14:03:00,
2013-02-05 08:08:00,46.8,46.3,29.94,WNW,298,0.0,0.0,98,0.00,,,0.00,WeatherCatV1.13B119,2013-02-05 14:08:00,
2013-02-05 08:13:00,47.5,47.0,29.94,WNW,298,0.0,0.0,98,0.00,,,0.00,WeatherCatV1.13B119,2013-02-05 14:13:00,
2013-02-05 08:18:00,48.2,47.4,29.94,WNW,298,0.0,0.0,97,0.00,,,0.00,WeatherCatV1.13B119,2013-02-05 14:18:00,
2013-02-05 08:23:00,49.1,47.4,29.94,NW,315,0.0,1.0,94,0.00,,,0.00,WeatherCatV1.13B119,2013-02-05 14:23:00,
2013-02-05 08:28:00,50.0,48.1,29.95,NW,315,0.0,0.0,93,0.00,,,0.00,WeatherCatV1.13B119,2013-02-05 14:28:00,
2013-02-05 08:33:00,50.9,48.1,29.95,West,262,0.0,1.0,90,0.00,,,0.00,WeatherCatV1.13B119,2013-02-05 14:33:00,
2013-02-05 08:38:00,51.9,48.8,29.95,West,262,0.0,0.0,89,0.00,,,0.00,WeatherCatV1.13B119,2013-02-05 14:38:00,
2013-02-05 08:43:00,52.5,48.7,29.95,NNW,345,0.0,0.0,87,0.00,,,0.00,WeatherCatV1.13B119,2013-02-05 14:43:00,
2013-02-05 08:48:00,52.8,49.0,29.95,West,266,0.0,2.0,87,0.00,,,0.00,WeatherCatV1.13B119,2013-02-05 14:48:00,
2013-02-05 08:53:00,53.6,48.9,29.96,NNW,337,0.0,2.0,84,0.00,,,0.00,WeatherCatV1.13B119,2013-02-05 14:53:00,
2013-02-05 08:58:00,54.3,48.6,29.96,NNW,330,0.0,1.0,81,0.00,,,0.00,WeatherCatV1.13B119,2013-02-05 14:58:00,
2013-02-05 09:03:00,54.6,48.2,29.96,NNE,19,0.0,3.0,79,0.00,,,0.00,WeatherCatV1.13B119,2013-02-05 15:03:00,
2013-02-05 09:08:00,54.9,47.8,29.96,ENE,64,0.0,2.0,77,0.00,,,0.00,WeatherCatV1.13B119,2013-02-05 15:08:00,
2013-02-05 09:13:00,55.1,47.7,29.96,NE,56,0.0,0.0,76,0.00,,,0.00,WeatherCatV1.13B119,2013-02-05 15:13:00,
2013-02-05 09:18:00,55.5,47.0,29.96,West,272,0.0,1.0,73,0.00,,,0.00,WeatherCatV1.13B119,2013-02-05 15:18:00,
2013-02-05 09:23:00,56.1,47.6,29.96,West,266,0.0,1.0,73,0.00,,,0.00,WeatherCatV1.13B119,2013-02-05 15:23:00,
2013-02-05 09:28:00,56.3,47.0,29.97,South,185,1.0,1.0,71,0.00,,,0.00,WeatherCatV1.13B119,2013-02-05 15:28:00,
2013-02-05 09:33:00,56.9,47.2,29.97,WSW,246,0.0,2.0,70,0.00,,,0.00,WeatherCatV1.13B119,2013-02-05 15:33:00,
2013-02-05 09:38:00,57.2,46.7,29.97,WNW,295,0.0,1.0,68,0.00,,,0.00,WeatherCatV1.13B119,2013-02-05 15:38:00,
2013-02-05 09:43:00,57.5,47.0,29.97,WSW,253,0.0,1.0,68,0.00,,,0.00,WeatherCatV1.13B119,2013-02-05 15:43:00,
2013-02-05 09:48:00,57.9,46.6,29.97,WSW,238,1.0,4.0,66,0.00,,,0.00,WeatherCatV1.13B119,2013-02-05 15:48:00,
2013-02-05 09:53:00,58.4,47.1,29.97,WSW,238,0.0,3.0,66,0.00,,,0.00,WeatherCatV1.13B119,2013-02-05 15:53:00,
2013-02-05 09:58:00,58.7,47.0,29.97,West,265,0.0,2.0,65,0.00,,,0.00,WeatherCatV1.13B119,2013-02-05 15:58:00,
2013-02-05 10:03:00,59.3,47.1,29.97,West,274,0.0,2.0,64,0.00,,,0.00,WeatherCatV1.13B119,2013-02-05 16:03:00,
2013-02-05 10:08:00,60.1,47.0,29.97,NW,314,2.0,2.0,62,0.00,,,0.00,WeatherCatV1.13B119,2013-02-05 16:08:00,
2013-02-05 10:13:00,60.5,46.5,29.98,West,274,0.0,4.0,60,0.00,,,0.00,WeatherCatV1.13B119,2013-02-05 16:13:00,
2013-02-05 10:18:00,61.0,47.5,29.97,ENE,78,0.0,2.0,61,0.00,,,0.00,WeatherCatV1.13B119,2013-02-05 16:18:00,
2013-02-05 10:23:00,61.6,47.1,29.98,WSW,246,0.0,3.0,59,0.00,,,0.00,WeatherCatV1.13B119,2013-02-05 16:23:00,
2013-02-05 10:28:00,62.0,47.5,29.97,North,1,0.0,2.0,59,0.00,,,0.00,WeatherCatV1.13B119,2013-02-05 16:28:00,
2013-02-05 10:33:00,62.5,48.0,29.98,WSW,258,0.0,1.0,59,0.00,,,0.00,WeatherCatV1.13B119,2013-02-05 16:33:00,
2013-02-05 10:38:00,63.0,48.0,29.97,NNW,338,2.0,2.0,58,0.00,,,0.00,WeatherCatV1.13B119,2013-02-05 16:38:00,
2013-02-05 10:43:00,63.4,47.4,29.97,NNW,340,0.0,4.0,56,0.00,,,0.00,WeatherCatV1.13B119,2013-02-05 16:43:00,
2013-02-05 10:48:00,64.0,48.0,29.97,WNW,283,0.0,2.0,56,0.00,,,0.00,WeatherCatV1.13B119,2013-02-05 16:48:00,
2013-02-05 10:53:00,64.1,47.6,29.97,West,259,0.0,2.0,55,0.00,,,0.00,WeatherCatV1.13B119,2013-02-05 16:53:00,
2013-02-05 10:58:00,63.7,47.7,29.97,WSW,247,0.0,1.0,56,0.00,,,0.00,WeatherCatV1.13B119,2013-02-05 16:58:00,
2013-02-05 11:03:00,64.1,48.1,29.97,NNW,341,0.0,2.0,56,0.00,,,0.00,WeatherCatV1.13B119,2013-02-05 17:03:00,
2013-02-05 11:08:00,64.7,49.1,29.97,WSW,248,0.0,0.0,57,0.00,,,0.00,WeatherCatV1.13B119,2013-02-05 17:08:00,
2013-02-05 11:13:00,65.5,48.4,29.97,SW,231,1.0,2.0,54,0.00,,,0.00,WeatherCatV1.13B119,2013-02-05 17:13:00,
2013-02-05 11:18:00,66.2,48.0,29.97,WSW,237,0.0,2.0,52,0.00,,,0.00,WeatherCatV1.13B119,2013-02-05 17:18:00,
2013-02-05 11:23:00,66.5,48.3,29.97,SW,226,1.0,3.0,52,0.00,,,0.00,WeatherCatV1.13B119,2013-02-05 17:23:00,
2013-02-05 11:28:00,66.7,48.5,29.97,SSW,212,1.0,1.0,52,0.00,,,0.00,WeatherCatV1.13B119,2013-02-05 17:28:00,
2013-02-05 11:33:00,67.5,49.2,29.97,SW,219,1.0,2.0,52,0.00,,,0.00,WeatherCatV1.13B119,2013-02-05 17:33:00,
2013-02-05 11:38:00,67.9,49.1,29.97,WSW,239,0.0,2.0,51,0.00,,,0.00,WeatherCatV1.13B119,2013-02-05 17:38:00,
2013-02-05 11:43:00,67.9,48.6,29.97,West,276,0.0,2.0,50,0.00,,,0.00,WeatherCatV1.13B119,2013-02-05 17:43:00,
2013-02-05 11:48:00,68.6,49.2,29.96,SW,223,1.0,1.0,50,0.00,,,0.00,WeatherCatV1.13B119,2013-02-05 17:48:00,
2013-02-05 11:53:00,69.7,49.7,29.96,West,278,0.0,2.0,49,0.00,,,0.00,WeatherCatV1.13B119,2013-02-05 17:53:00,
2013-02-05 11:58:00,70.2,49.0,29.96,West,263,0.0,1.0,47,0.00,,,0.00,WeatherCatV1.13B119,2013-02-05 17:58:00,
2013-02-05 12:03:00,69.5,49.5,29.96,NNW,340,0.0,1.0,49,0.00,,,0.00,WeatherCatV1.13B119,2013-02-05 18:03:00,
2013-02-05 12:08:00,69.7,49.1,29.96,SW,234,1.0,2.0,48,0.00,,,0.00,WeatherCatV1.13B119,2013-02-05 18:08:00,
2013-02-05 12:13:00,70.0,48.8,29.95,NW,323,2.0,3.0,47,0.00,,,0.00,WeatherCatV1.13B119,2013-02-05 18:13:00,
2013-02-05 12:18:00,70.5,48.7,29.95,West,265,1.0,2.0,46,0.00,,,0.00,WeatherCatV1.13B119,2013-02-05 18:18:00,
2013-02-05 12:23:00,71.3,48.8,29.95,NW,307,1.0,2.0,45,0.00,,,0.00,WeatherCatV1.13B119,2013-02-05 18:23:00,
2013-02-05 12:28:00,71.7,49.2,29.95,SW,236,1.0,2.0,45,0.00,,,0.00,WeatherCatV1.13B119,2013-02-05 18:28:00,
2013-02-05 12:33:00,72.4,48.6,29.95,SW,214,1.0,1.0,43,0.00,,,0.00,WeatherCatV1.13B119,2013-02-05 18:33:00,
2013-02-05 12:38:00,72.8,49.0,29.94,ESE,115,3.0,3.0,43,0.00,,,0.00,WeatherCatV1.13B119,2013-02-05 18:38:00,
2013-02-05 12:43:00,73.7,48.5,29.94,NNW,335,0.0,3.0,41,0.00,,,0.00,WeatherCatV1.13B119,2013-02-05 18:43:00,
2013-02-05 12:48:00,73.1,48.0,29.94,WSW,248,0.0,0.0,41,0.00,,,0.00,WeatherCatV1.13B119,2013-02-05 18:48:00,
2013-02-05 12:53:00,73.1,48.0,29.94,West,277,0.0,2.0,41,0.00,,,0.00,WeatherCatV1.13B119,2013-02-05 18:53:00,
2013-02-05 12:58:00,73.7,48.5,29.93,SSW,206,2.0,4.0,41,0.00,,,0.00,WeatherCatV1.13B119,2013-02-05 18:58:00,
2013-02-05 13:03:00,74.8,49.5,29.93,SSE,152,0.0,2.0,41,0.00,,,0.00,WeatherCatV1.13B119,2013-02-05 19:03:00,
2013-02-05 13:08:00,75.5,48.1,29.93,West,272,0.0,2.0,38,0.00,,,0.00,WeatherCatV1.13B119,2013-02-05 19:08:00,
2013-02-05 13:13:00,75.8,48.4,29.92,SSE,152,3.0,3.0,38,0.00,,,0.00,WeatherCatV1.13B119,2013-02-05 19:13:00,
2013-02-05 13:18:00,76.2,47.3,29.92,SE,124,1.0,3.0,36,0.00,,,0.00,WeatherCatV1.13B119,2013-02-05 19:18:00,
2013-02-05 13:23:00,76.3,47.4,29.92,SSE,165,2.0,3.0,36,0.00,,,0.00,WeatherCatV1.13B119,2013-02-05 19:23:00,
2013-02-05 13:28:00,76.6,46.1,29.91,SSW,200,0.0,2.0,34,0.00,,,0.00,WeatherCatV1.13B119,2013-02-05 19:28:00,
2013-02-05 13:33:00,76.8,46.3,29.91,ESE,112,1.0,4.0,34,0.00,,,0.00,WeatherCatV1.13B119,2013-02-05 19:33:00,
2013-02-05 13:38:00,77.4,46.8,29.91,ESE,120,1.0,4.0,34,0.00,,,0.00,WeatherCatV1.13B119,2013-02-05 19:38:00,
2013-02-05 13:43:00,77.5,44.5,29.91,ESE,115,2.0,4.0,31,0.00,,,0.00,WeatherCatV1.13B119,2013-02-05 19:43:00,
2013-02-05 13:48:00,77.5,42.7,29.91,South,191,1.0,3.0,29,0.00,,,0.00,WeatherCatV1.13B119,2013-02-05 19:48:00,
2013-02-05 13:53:00,78.0,43.1,29.90,SW,229,0.0,6.0,29,0.00,,,0.00,WeatherCatV1.13B119,2013-02-05 19:53:00,
2013-02-05 13:58:00,78.3,43.4,29.90,SSW,208,0.0,2.0,29,0.00,,,0.00,WeatherCatV1.13B119,2013-02-05 19:58:00,
2013-02-05 14:03:00,78.3,39.6,29.90,SE,141,3.0,6.0,25,0.00,,,0.00,WeatherCatV1.13B119,2013-02-05 20:03:00,
2013-02-05 14:08:00,78.2,40.5,29.90,South,180,2.0,2.0,26,0.00,,,0.00,WeatherCatV1.13B119,2013-02-05 20:08:00,
2013-02-05 14:13:00,78.6,41.8,29.89,ESE,113,3.0,3.0,27,0.00,,,0.00,WeatherCatV1.13B119,2013-02-05 20:13:00,
2013-02-05 14:18:00,78.7,41.9,29.89,SSW,212,1.0,4.0,27,0.00,,,0.00,WeatherCatV1.13B119,2013-02-05 20:18:00,
2013-02-05 14:23:00,78.4,40.7,29.89,WSW,243,0.0,3.0,26,0.00,,,0.00,WeatherCatV1.13B119,2013-02-05 20:23:00,
2013-02-05 14:28:00,78.5,41.7,29.89,ESE,102,3.0,3.0,27,0.00,,,0.00,WeatherCatV1.13B119,2013-02-05 20:28:00,
2013-02-05 14:33:00,78.2,41.5,29.88,SE,141,0.0,4.0,27,0.00,,,0.00,WeatherCatV1.13B119,2013-02-05 20:33:00,
2013-02-05 14:38:00,78.1,43.2,29.88,SSE,160,2.0,2.0,29,0.00,,,0.00,WeatherCatV1.13B119,2013-02-05 20:38:00,
2013-02-05 14:43:00,78.6,42.7,29.88,SSW,202,0.0,2.0,28,0.00,,,0.00,WeatherCatV1.13B119,2013-02-05 20:43:00,
2013-02-05 14:48:00,78.8,42.0,29.88,SW,214,0.0,3.0,27,0.00,,,0.00,WeatherCatV1.13B119,2013-02-05 20:48:00,
2013-02-05 14:53:00,78.6,40.8,29.88,ESE,111,1.0,4.0,26,0.00,,,0.00,WeatherCatV1.13B119,2013-02-05 20:53:00,
2013-02-05 14:58:00,78.6,42.7,29.88,ESE,103,1.0,3.0,28,0.00,,,0.00,WeatherCatV1.13B119,2013-02-05 20:58:00,
2013-02-05 15:03:00,78.5,42.7,29.88,East,95,1.0,3.0,28,0.00,,,0.00,WeatherCatV1.13B119,2013-02-05 21:03:00,
2013-02-05 15:08:00,78.5,41.7,29.88,South,174,0.0,2.0,27,0.00,,,0.00,WeatherCatV1.13B119,2013-02-05 21:08:00,
2013-02-05 15:13:00,78.4,41.6,29.87,SSE,150,1.0,3.0,27,0.00,,,0.00,WeatherCatV1.13B119,2013-02-05 21:13:00,
2013-02-05 15:18:00,78.5,42.7,29.87,SW,229,1.0,3.0,28,0.00,,,0.00,WeatherCatV1.13B119,2013-02-05 21:18:00,
2013-02-05 15:23:00,78.6,41.8,29.87,SE,124,1.0,3.0,27,0.00,,,0.00,WeatherCatV1.13B119,2013-02-05 21:23:00,
2013-02-05 15:28:00,78.6,42.7,29.87,East,79,1.0,3.0,28,0.00,,,0.00,WeatherCatV1.13B119,2013-02-05 21:28:00,
2013-02-05 15:33:00,78.7,41.9,29.87,WSW,254,0.0,2.0,27,0.00,,,0.00,WeatherCatV1.13B119,2013-02-05 21:33:00,
2013-02-05 15:38:00,78.3,42.5,29.87,ESE,122,2.0,2.0,28,0.00,,,0.00,WeatherCatV1.13B119,2013-02-05 21:38:00,
2013-02-05 15:43:00,78.1,43.2,29.87,SSW,212,2.0,2.0,29,0.00,,,0.00,WeatherCatV1.13B119,2013-02-05 21:43:00,
2013-02-05 15:48:00,78.0,42.2,29.87,South,189,1.0,1.0,28,0.00,,,0.00,WeatherCatV1.13B119,2013-02-05 21:48:00,
2013-02-05 15:53:00,78.0,43.1,29.87,SSW,210,1.0,2.0,29,0.00,,,0.00,WeatherCatV1.13B119,2013-02-05 21:53:00,
2013-02-05 15:58:00,78.0,42.2,29.87,East,95,0.0,2.0,28,0.00,,,0.00,WeatherCatV1.13B119,2013-02-05 21:58:00,
2013-02-05 16:03:00,77.8,41.1,29.86,South,174,0.0,1.0,27,0.00,,,0.00,WeatherCatV1.13B119,2013-02-05 22:03:00,
2013-02-05 16:08:00,77.7,42.0,29.86,SSE,161,1.0,2.0,28,0.00,,,0.00,WeatherCatV1.13B119,2013-02-05 22:08:00,
2013-02-05 16:13:00,77.6,41.0,29.87,South,191,0.0,2.0,27,0.00,,,0.00,WeatherCatV1.13B119,2013-02-05 22:13:00,
2013-02-05 16:18:00,77.4,40.8,29.87,WNW,283,0.0,0.0,27,0.00,,,0.00,WeatherCatV1.13B119,2013-02-05 22:18:00,
2013-02-05 16:23:00,77.2,41.6,29.87,SW,217,1.0,1.0,28,0.00,,,0.00,WeatherCatV1.13B119,2013-02-05 22:23:00,
2013-02-05 16:28:00,77.2,40.6,29.87,SE,137,0.0,1.0,27,0.00,,,0.00,WeatherCatV1.13B119,2013-02-05 22:28:00,
2013-02-05 16:33:00,77.2,40.6,29.87,SSE,153,0.0,2.0,27,0.00,,,0.00,WeatherCatV1.13B119,2013-02-05 22:33:00,
2013-02-05 16:38:00,77.1,41.5,29.87,ESE,108,1.0,1.0,28,0.00,,,0.00,WeatherCatV1.13B119,2013-02-05 22:38:00,
2013-02-05 16:43:00,77.3,41.6,29.87,SE,143,0.0,1.0,28,0.00,,,0.00,WeatherCatV1.13B119,2013-02-05 22:43:00,
2013-02-05 16:48:00,77.0,41.4,29.86,East,96,0.0,1.0,28,0.00,,,0.00,WeatherCatV1.13B119,2013-02-05 22:48:00,
2013-02-05 16:53:00,76.8,41.2,29.87,SE,140,0.0,1.0,28,0.00,,,0.00,WeatherCatV1.13B119,2013-02-05 22:53:00,
2013-02-05 16:58:00,76.6,41.9,29.87,SE,140,0.0,0.0,29,0.00,,,0.00,WeatherCatV1.13B119,2013-02-05 22:58:00,
2013-02-05 17:03:00,76.4,40.9,29.87,ESE,109,0.0,1.0,28,0.00,,,0.00,WeatherCatV1.13B119,2013-02-05 23:03:00,
2013-02-05 17:08:00,76.6,41.0,29.87,SE,134,0.0,1.0,28,0.00,,,0.00,WeatherCatV1.13B119,2013-02-05 23:08:00,
2013-02-05 17:13:00,77.0,41.4,29.87,SSE,158,0.0,2.0,28,0.00,,,0.00,WeatherCatV1.13B119,2013-02-05 23:13:00,
2013-02-05 17:18:00,76.9,41.3,29.87,SSE,158,0.0,0.0,28,0.00,,,0.00,WeatherCatV1.13B119,2013-02-05 23:18:00,
2013-02-05 17:23:00,76.2,41.6,29.87,SSE,158,0.0,0.0,29,0.00,,,0.00,WeatherCatV1.13B119,2013-02-05 23:23:00,
2013-02-05 17:28:00,75.7,41.2,29.87,SSE,159,0.0,0.0,29,0.00,,,0.00,WeatherCatV1.13B119,2013-02-05 23:28:00,
2013-02-05 17:33:00,75.3,41.7,29.87,SSE,159,0.0,0.0,30,0.00,,,0.00,WeatherCatV1.13B119,2013-02-05 23:33:00,
2013-02-05 17:38:00,74.9,40.5,29.87,SSE,160,0.0,0.0,29,0.00,,,0.00,WeatherCatV1.13B119,2013-02-05 23:38:00,
2013-02-05 17:43:00,74.5,41.0,29.87,SSE,160,0.0,0.0,30,0.00,,,0.00,WeatherCatV1.13B119,2013-02-05 23:43:00,
2013-02-05 17:48:00,73.8,42.9,29.87,SSE,160,0.0,0.0,33,0.00,,,0.00,WeatherCatV1.13B119,2013-02-05 23:48:00,
2013-02-05 17:53:00,72.5,44.7,29.87,SSE,160,0.0,0.0,37,0.00,,,0.00,WeatherCatV1.13B119,2013-02-05 23:53:00,
2013-02-05 17:58:00,71.3,45.1,29.87,SSE,160,0.0,0.0,39,0.00,,,0.00,WeatherCatV1.13B119,2013-02-05 23:58:00,
2013-02-05 18:03:00,70.2,44.7,29.87,SSE,160,0.0,0.0,40,0.00,,,0.00,WeatherCatV1.13B119,2013-02-06 00:03:00,
2013-02-05 18:08:00,69.3,44.6,29.87,SSE,160,0.0,0.0,41,0.00,,,0.00,WeatherCatV1.13B119,2013-02-06 00:08:00,
2013-02-05 18:13:00,68.3,44.3,29.88,SSE,160,0.0,0.0,42,0.00,,,0.00,WeatherCatV1.13B119,2013-02-06 00:13:00,
2013-02-05 18:18:00,67.5,44.2,29.88,SSE,160,0.0,0.0,43,0.00,,,0.00,WeatherCatV1.13B119,2013-02-06 00:18:00,
2013-02-05 18:23:00,66.7,44.1,29.88,SSE,160,0.0,0.0,44,0.00,,,0.00,WeatherCatV1.13B119,2013-02-06 00:23:00,
2013-02-05 18:28:00,66.2,43.6,29.88,SSE,160,0.0,0.0,44,0.00,,,0.00,WeatherCatV1.13B119,2013-02-06 00:28:00,
2013-02-05 18:33:00,65.6,43.7,29.88,SSE,160,0.0,0.0,45,0.00,,,0.00,WeatherCatV1.13B119,2013-02-06 00:33:00,
2013-02-05 18:38:00,64.9,43.6,29.88,SSE,160,0.0,0.0,46,0.00,,,0.00,WeatherCatV1.13B119,2013-02-06 00:38:00,
2013-02-05 18:43:00,64.0,43.4,29.88,SSE,160,0.0,0.0,47,0.00,,,0.00,WeatherCatV1.13B119,2013-02-06 00:43:00,
2013-02-05 18:48:00,63.3,43.3,29.89,SSE,160,0.0,0.0,48,0.00,,,0.00,WeatherCatV1.13B119,2013-02-06 00:48:00,
2013-02-05 18:53:00,62.7,43.8,29.89,SSE,160,0.0,0.0,50,0.00,,,0.00,WeatherCatV1.13B119,2013-02-06 00:53:00,
2013-02-05 18:58:00,61.9,43.6,29.89,SSE,160,0.0,0.0,51,0.00,,,0.00,WeatherCatV1.13B119,2013-02-06 00:58:00,
2013-02-05 19:03:00,61.3,43.5,29.89,SSE,160,0.0,0.0,52,0.00,,,0.00,WeatherCatV1.13B119,2013-02-06 01:03:00,
2013-02-05 19:08:00,60.7,43.5,29.90,SSE,160,0.0,0.0,53,0.00,,,0.00,WeatherCatV1.13B119,2013-02-06 01:08:00,
2013-02-05 19:13:00,60.4,43.7,29.90,SSE,160,0.0,0.0,54,0.00,,,0.00,WeatherCatV1.13B119,2013-02-06 01:13:00,
2013-02-05 19:18:00,60.2,44.4,29.91,SSE,160,0.0,0.0,56,0.00,,,0.00,WeatherCatV1.13B119,2013-02-06 01:18:00,
2013-02-05 19:23:00,60.1,43.9,29.91,SSE,160,0.0,1.0,55,0.00,,,0.00,WeatherCatV1.13B119,2013-02-06 01:23:00,
2013-02-05 19:28:00,59.6,44.3,29.91,SSE,160,0.0,0.0,57,0.00,,,0.00,WeatherCatV1.13B119,2013-02-06 01:28:00,
2013-02-05 19:33:00,59.4,45.1,29.91,WSW,241,0.0,1.0,59,0.00,,,0.00,WeatherCatV1.13B119,2013-02-06 01:33:00,
2013-02-05 19:38:00,59.4,45.1,29.92,WSW,241,0.0,0.0,59,0.00,,,0.00,WeatherCatV1.13B119,2013-02-06 01:38:00,
2013-02-05 19:43:00,59.2,45.3,29.91,WSW,246,1.0,1.0,60,0.00,,,0.00,WeatherCatV1.13B119,2013-02-06 01:43:00,
2013-02-05 19:48:00,58.8,44.9,29.91,WSW,248,0.0,0.0,60,0.00,,,0.00,WeatherCatV1.13B119,2013-02-06 01:48:00,
2013-02-05 19:53:00,58.4,45.0,29.91,WSW,248,0.0,0.0,61,0.00,,,0.00,WeatherCatV1.13B119,2013-02-06 01:53:00,
2013-02-05 19:58:00,58.3,45.3,29.91,WSW,248,0.0,0.0,62,0.00,,,0.00,WeatherCatV1.13B119,2013-02-06 01:58:00,
2013-02-05 20:03:00,58.2,44.8,29.91,WSW,248,0.0,0.0,61,0.00,,,0.00,WeatherCatV1.13B119,2013-02-06 02:03:00,
2013-02-05 20:08:00,58.0,44.6,29.91,WSW,248,0.0,0.0,61,0.00,,,0.00,WeatherCatV1.13B119,2013-02-06 02:08:00,
2013-02-05 20:13:00,57.8,44.9,29.92,WSW,248,0.0,0.0,62,0.00,,,0.00,WeatherCatV1.13B119,2013-02-06 02:13:00,
2013-02-05 20:18:00,57.4,44.9,29.92,WSW,248,0.0,0.0,63,0.00,,,0.00,WeatherCatV1.13B119,2013-02-06 02:18:00,
2013-02-05 20:23:00,57.1,44.6,29.92,WSW,257,0.0,1.0,63,0.00,,,0.00,WeatherCatV1.13B119,2013-02-06 02:23:00,
2013-02-05 20:28:00,57.0,44.9,29.93,NW,326,1.0,1.0,64,0.00,,,0.00,WeatherCatV1.13B119,2013-02-06 02:28:00,
2013-02-05 20:33:00,56.9,44.8,29.93,NNW,327,1.0,2.0,64,0.00,,,0.00,WeatherCatV1.13B119,2013-02-06 02:33:00,
2013-02-05 20:38:00,57.2,45.9,29.93,NNW,342,1.0,2.0,66,0.00,,,0.00,WeatherCatV1.13B119,2013-02-06 02:38:00,
2013-02-05 20:43:00,57.7,46.0,29.93,NNW,341,0.0,0.0,65,0.00,,,0.00,WeatherCatV1.13B119,2013-02-06 02:43:00,
2013-02-05 20:48:00,57.8,46.5,29.94,NNW,341,0.0,0.0,66,0.00,,,0.00,WeatherCatV1.13B119,2013-02-06 02:48:00,
2013-02-05 20:53:00,58.0,46.7,29.94,NNW,340,0.0,0.0,66,0.00,,,0.00,WeatherCatV1.13B119,2013-02-06 02:53:00,
2013-02-05 20:58:00,58.2,46.9,29.94,NNW,340,0.0,0.0,66,0.00,,,0.00,WeatherCatV1.13B119,2013-02-06 02:58:00,
2013-02-05 21:03:00,58.3,46.6,29.94,NNW,340,0.0,0.0,65,0.00,,,0.00,WeatherCatV1.13B119,2013-02-06 03:03:00,
2013-02-05 21:08:00,58.4,47.5,29.94,NNW,340,0.0,0.0,67,0.00,,,0.00,WeatherCatV1.13B119,2013-02-06 03:08:00,
2013-02-05 21:13:00,58.4,47.5,29.94,NNW,340,0.0,0.0,67,0.00,,,0.00,WeatherCatV1.13B119,2013-02-06 03:13:00,
2013-02-05 21:18:00,58.4,47.5,29.94,NNW,340,0.0,0.0,67,0.00,,,0.00,WeatherCatV1.13B119,2013-02-06 03:18:00,
2013-02-05 21:23:00,58.5,47.6,29.94,NNW,340,0.0,0.0,67,0.00,,,0.00,WeatherCatV1.13B119,2013-02-06 03:23:00,
2013-02-05 21:28:00,58.6,47.7,29.94,NNW,340,0.0,0.0,67,0.00,,,0.00,WeatherCatV1.13B119,2013-02-06 03:28:00,
2013-02-05 21:33:00,58.6,47.7,29.94,NNW,340,0.0,0.0,67,0.00,,,0.00,WeatherCatV1.13B119,2013-02-06 03:33:00,
2013-02-05 21:38:00,58.5,47.6,29.95,NNW,340,0.0,0.0,67,0.00,,,0.00,WeatherCatV1.13B119,2013-02-06 03:38:00,
2013-02-05 21:43:00,58.6,48.1,29.95,NNW,340,0.0,0.0,68,0.00,,,0.00,WeatherCatV1.13B119,2013-02-06 03:43:00,
2013-02-05 21:48:00,58.7,48.6,29.94,NNW,340,0.0,0.0,69,0.00,,,0.00,WeatherCatV1.13B119,2013-02-06 03:48:00,
2013-02-05 21:53:00,58.9,48.7,29.94,NNW,340,0.0,1.0,69,0.00,,,0.00,WeatherCatV1.13B119,2013-02-06 03:53:00,
2013-02-05 21:58:00,59.1,48.5,29.94,NNW,340,0.0,0.0,68,0.00,,,0.00,WeatherCatV1.13B119,2013-02-06 03:58:00,
2013-02-05 22:03:00,59.1,48.5,29.95,NNW,340,0.0,0.0,68,0.00,,,0.00,WeatherCatV1.13B119,2013-02-06 04:03:00,
2013-02-05 22:08:00,59.1,48.5,29.95,NNW,340,0.0,0.0,68,0.00,,,0.00,WeatherCatV1.13B119,2013-02-06 04:08:00,
2013-02-05 22:13:00,59.4,48.8,29.95,NNW,340,0.0,0.0,68,0.00,,,0.00,WeatherCatV1.13B119,2013-02-06 04:13:00,
2013-02-05 22:18:00,59.6,49.0,29.96,NNW,340,0.0,0.0,68,0.00,,,0.00,WeatherCatV1.13B119,2013-02-06 04:18:00,
2013-02-05 22:23:00,59.8,49.2,29.96,NNW,340,0.0,0.0,68,0.00,,,0.00,WeatherCatV1.13B119,2013-02-06 04:23:00,
2013-02-05 22:28:00,59.8,49.2,29.95,NNW,340,0.0,0.0,68,0.00,,,0.00,WeatherCatV1.13B119,2013-02-06 04:28:00,
2013-02-05 22:33:00,59.8,49.6,29.95,NNW,340,0.0,0.0,69,0.00,,,0.00,WeatherCatV1.13B119,2013-02-06 04:33:00,
2013-02-05 22:38:00,59.9,49.3,29.95,NNW,340,0.0,0.0,68,0.00,,,0.00,WeatherCatV1.13B119,2013-02-06 04:38:00,
2013-02-05 22:43:00,59.8,49.6,29.95,NNW,340,0.0,0.0,69,0.00,,,0.00,WeatherCatV1.13B119,2013-02-06 04:43:00,
2013-02-05 22:48:00,59.6,49.4,29.95,NNW,340,0.0,0.0,69,0.00,,,0.00,WeatherCatV1.13B119,2013-02-06 04:48:00,
2013-02-05 22:53:00,59.5,49.3,29.95,NNW,340,0.0,0.0,69,0.00,,,0.00,WeatherCatV1.13B119,2013-02-06 04:53:00,
2013-02-05 22:58:00,59.3,49.1,29.95,NNW,340,0.0,0.0,69,0.00,,,0.00,WeatherCatV1.13B119,2013-02-06 04:58:00,
2013-02-05 23:00:00,59.3,49.5,29.95,NNW,340,0.0,0.0,70,0.00,,,0.00,WeatherCatV1.13B119,2013-02-06 05:00:00,
2013-02-05 23:05:00,59.2,49.4,29.95,NNW,340,0.0,1.0,70,0.00,,,0.00,WeatherCatV1.13B119,2013-02-06 05:05:00,
2013-02-05 23:10:00,59.2,49.4,29.95,NNW,340,0.0,0.0,70,0.00,,,0.00,WeatherCatV1.13B119,2013-02-06 05:10:00,
2013-02-05 23:15:00,59.1,49.3,29.95,NNW,340,0.0,0.0,70,0.00,,,0.00,WeatherCatV1.13B119,2013-02-06 05:15:00,
2013-02-05 23:20:00,59.2,49.4,29.95,NNW,340,0.0,0.0,70,0.00,,,0.00,WeatherCatV1.13B119,2013-02-06 05:20:00,
2013-02-05 23:25:00,59.1,49.3,29.95,NNW,340,0.0,0.0,70,0.00,,,0.00,WeatherCatV1.13B119,2013-02-06 05:25:00,
2013-02-05 23:30:00,59.1,49.7,29.95,NNW,340,0.0,0.0,71,0.00,,,0.00,WeatherCatV1.13B119,2013-02-06 05:30:00,
2013-02-05 23:35:00,59.0,49.6,29.95,NNW,340,0.0,0.0,71,0.00,,,0.00,WeatherCatV1.13B119,2013-02-06 05:35:00,
2013-02-05 23:40:00,59.0,49.6,29.95,NNW,340,0.0,0.0,71,0.00,,,0.00,WeatherCatV1.13B119,2013-02-06 05:40:00,
2013-02-05 23:45:00,59.0,50.0,29.95,NNW,340,0.0,0.0,72,0.00,,,0.00,WeatherCatV1.13B119,2013-02-06 05:45:00,
2013-02-05 23:50:00,58.9,49.9,29.95,NNW,340,0.0,0.0,72,0.00,,,0.00,WeatherCatV1.13B119,2013-02-06 05:50:00,
2013-02-05 23:55:00,58.9,50.3,29.95,NNW,340,0.0,0.0,73,0.00,,,0.00,WeatherCatV1.13B119,2013-02-06 05:55:00,